Time,TemperatureF,DewpointF,PressureIn,WindDirection,WindDirectionDegrees,WindSpeedMPH,WindSpeedGustMPH,Humidity,HourlyPrecipIn,Conditions,Clouds,dailyrainin,SoftwareType,DateUTC
2017-03-30 00:00:00,51.8,40.0,30.03,SE,130,1.0,1.0,64,0.00,,,0.00,Wunderground v.1.15,2017-03-30 04:00:00,
2017-03-30 00:06:00,51.9,40.1,30.03,East,98,2.0,4.0,64,0.00,,,0.00,Wunderground v.1.15,2017-03-30 04:06:00,
2017-03-30 00:11:00,52.0,40.2,30.03,East,86,2.0,2.0,64,0.00,,,0.00,Wunderground v.1.15,2017-03-30 04:11:00,
2017-03-30 00:17:00,52.1,39.9,30.01,SE,140,2.0,5.0,63,0.00,,,0.00,Wunderground v.1.15,2017-03-30 04:17:00,
2017-03-30 00:23:00,52.0,39.8,30.01,East,98,3.0,3.0,63,0.00,,,0.00,Wunderground v.1.15,2017-03-30 04:23:00,
2017-03-30 00:28:00,52.1,39.9,30.01,ENE,74,2.0,3.0,63,0.00,,,0.00,Wunderground v.1.15,2017-03-30 04:28:00,
2017-03-30 00:34:00,52.0,39.8,30.00,SSE,147,1.0,2.0,63,0.00,,,0.00,Wunderground v.1.15,2017-03-30 04:34:00,
2017-03-30 00:40:00,51.9,39.7,30.00,East,94,1.0,1.0,63,0.00,,,0.00,Wunderground v.1.15,2017-03-30 04:40:00,
2017-03-30 00:46:00,51.7,39.9,30.00,SSE,153,0.0,4.0,64,0.00,,,0.00,Wunderground v.1.15,2017-03-30 04:46:00,
2017-03-30 00:51:00,51.5,39.3,30.00,East,99,1.0,1.0,63,0.00,,,0.00,Wunderground v.1.15,2017-03-30 04:51:00,
2017-03-30 00:57:00,51.3,39.5,30.00,East,94,1.0,3.0,64,0.00,,,0.00,Wunderground v.1.15,2017-03-30 04:57:00,
2017-03-30 01:03:00,51.1,39.3,30.00,South,177,1.0,4.0,64,0.00,,,0.00,Wunderground v.1.15,2017-03-30 05:03:00,
2017-03-30 01:08:00,51.0,39.6,30.00,East,98,1.0,4.0,65,0.00,,,0.00,Wunderground v.1.15,2017-03-30 05:08:00,
2017-03-30 01:14:00,50.8,39.1,30.00,SSE,157,1.0,1.0,64,0.00,,,0.00,Wunderground v.1.15,2017-03-30 05:14:00,
2017-03-30 01:20:00,50.9,39.5,30.00,SE,134,0.0,1.0,65,0.00,,,0.00,Wunderground v.1.15,2017-03-30 05:20:00,
2017-03-30 01:26:00,51.0,39.6,30.00,East,95,1.0,3.0,65,0.00,,,0.00,Wunderground v.1.15,2017-03-30 05:26:00,
2017-03-30 01:32:00,51.0,39.6,30.00,East,99,0.0,1.0,65,0.00,,,0.00,Wunderground v.1.15,2017-03-30 05:32:00,
2017-03-30 01:37:00,51.0,39.6,30.00,East,92,1.0,1.0,65,0.00,,,0.00,Wunderground v.1.15,2017-03-30 05:37:00,
2017-03-30 01:42:00,50.9,39.5,30.00,SE,138,1.0,1.0,65,0.00,,,0.00,Wunderground v.1.15,2017-03-30 05:42:00,
2017-03-30 01:48:00,50.9,39.5,29.98,East,97,2.0,2.0,65,0.00,,,0.00,Wunderground v.1.15,2017-03-30 05:48:00,
2017-03-30 01:54:00,50.7,39.7,29.98,ESE,117,0.0,2.0,66,0.00,,,0.00,Wunderground v.1.15,2017-03-30 05:54:00,
2017-03-30 02:00:00,50.5,39.6,29.97,SE,141,1.0,1.0,66,0.00,,,0.00,Wunderground v.1.15,2017-03-30 06:00:00,
2017-03-30 02:05:00,50.3,39.4,29.97,SE,142,4.0,6.0,66,0.00,,,0.00,Wunderground v.1.15,2017-03-30 06:05:00,
2017-03-30 02:10:00,50.2,39.3,29.97,East,94,0.0,2.0,66,0.00,,,0.00,Wunderground v.1.15,2017-03-30 06:10:00,
2017-03-30 02:15:00,50.1,39.6,29.97,East,99,1.0,2.0,67,0.00,,,0.00,Wunderground v.1.15,2017-03-30 06:15:00,
2017-03-30 02:20:00,50.0,39.5,29.97,SSE,150,1.0,1.0,67,0.00,,,0.00,Wunderground v.1.15,2017-03-30 06:20:00,
2017-03-30 02:25:00,49.9,39.4,29.97,ESE,107,1.0,5.0,67,0.00,,,0.00,Wunderground v.1.15,2017-03-30 06:25:00,
2017-03-30 02:30:00,49.8,39.3,29.96,ENE,71,2.0,2.0,67,0.00,,,0.00,Wunderground v.1.15,2017-03-30 06:30:00,
2017-03-30 02:35:00,49.8,39.3,29.96,East,98,1.0,4.0,67,0.00,,,0.00,Wunderground v.1.15,2017-03-30 06:35:00,
2017-03-30 02:40:00,49.8,38.9,29.96,East,96,1.0,2.0,66,0.00,,,0.00,Wunderground v.1.15,2017-03-30 06:40:00,
2017-03-30 02:45:00,49.7,38.8,29.95,ESE,115,0.0,6.0,66,0.00,,,0.00,Wunderground v.1.15,2017-03-30 06:45:00,
2017-03-30 02:50:00,49.7,39.2,29.95,ENE,74,1.0,2.0,67,0.00,,,0.00,Wunderground v.1.15,2017-03-30 06:50:00,
2017-03-30 02:55:00,49.6,38.7,29.95,East,84,2.0,5.0,66,0.00,,,0.00,Wunderground v.1.15,2017-03-30 06:55:00,
2017-03-30 03:00:00,49.5,38.6,29.95,East,84,2.0,2.0,66,0.00,,,0.00,Wunderground v.1.15,2017-03-30 07:00:00,
2017-03-30 03:05:00,49.5,39.0,29.95,East,98,1.0,4.0,67,0.00,,,0.00,Wunderground v.1.15,2017-03-30 07:05:00,
2017-03-30 03:10:00,49.4,38.9,29.95,South,187,0.0,1.0,67,0.00,,,0.00,Wunderground v.1.15,2017-03-30 07:10:00,
2017-03-30 03:15:00,49.3,38.8,29.94,East,84,0.0,5.0,67,0.00,,,0.00,Wunderground v.1.15,2017-03-30 07:15:00,
2017-03-30 03:20:00,49.2,38.7,29.94,ESE,107,1.0,3.0,67,0.00,,,0.00,Wunderground v.1.15,2017-03-30 07:20:00,
2017-03-30 03:25:00,49.3,38.8,29.94,SE,125,0.0,4.0,67,0.00,,,0.00,Wunderground v.1.15,2017-03-30 07:25:00,
2017-03-30 03:30:00,49.3,39.2,29.94,East,93,0.0,1.0,68,0.00,,,0.00,Wunderground v.1.15,2017-03-30 07:30:00,
2017-03-30 03:35:00,49.2,38.7,29.94,ENE,66,1.0,4.0,67,0.00,,,0.00,Wunderground v.1.15,2017-03-30 07:35:00,
2017-03-30 03:41:00,49.2,39.1,29.94,ENE,70,0.0,2.0,68,0.00,,,0.00,Wunderground v.1.15,2017-03-30 07:41:00,
2017-03-30 03:46:00,49.3,39.2,29.94,ENE,65,1.0,4.0,68,0.00,,,0.00,Wunderground v.1.15,2017-03-30 07:46:00,
2017-03-30 03:51:00,49.3,39.2,29.94,NE,50,1.0,1.0,68,0.00,,,0.00,Wunderground v.1.15,2017-03-30 07:51:00,
2017-03-30 03:56:00,49.4,38.9,29.94,SE,136,2.0,4.0,67,0.00,,,0.00,Wunderground v.1.15,2017-03-30 07:56:00,
2017-03-30 04:01:00,49.4,39.3,29.94,East,97,1.0,1.0,68,0.00,,,0.00,Wunderground v.1.15,2017-03-30 08:01:00,
2017-03-30 04:06:00,49.5,39.0,29.94,ENE,78,3.0,3.0,67,0.00,,,0.00,Wunderground v.1.15,2017-03-30 08:06:00,
2017-03-30 04:11:00,49.5,38.6,29.94,East,84,1.0,3.0,66,0.00,,,0.00,Wunderground v.1.15,2017-03-30 08:11:00,
2017-03-30 04:16:00,49.5,38.6,29.92,North,5,3.0,4.0,66,0.00,,,0.00,Wunderground v.1.15,2017-03-30 08:16:00,
2017-03-30 04:21:00,49.5,38.6,29.92,SSW,198,0.0,2.0,66,0.00,,,0.00,Wunderground v.1.15,2017-03-30 08:21:00,
2017-03-30 04:26:00,49.4,38.9,29.92,ENE,75,1.0,2.0,67,0.00,,,0.00,Wunderground v.1.15,2017-03-30 08:26:00,
2017-03-30 04:31:00,49.3,38.4,29.91,East,90,1.0,5.0,66,0.00,,,0.00,Wunderground v.1.15,2017-03-30 08:31:00,
2017-03-30 04:36:00,49.3,38.8,29.91,East,90,2.0,6.0,67,0.00,,,0.00,Wunderground v.1.15,2017-03-30 08:36:00,
2017-03-30 04:41:00,49.2,38.7,29.91,SE,142,0.0,3.0,67,0.00,,,0.00,Wunderground v.1.15,2017-03-30 08:41:00,
2017-03-30 04:46:00,49.1,38.6,29.90,East,97,1.0,4.0,67,0.00,,,0.00,Wunderground v.1.15,2017-03-30 08:46:00,
2017-03-30 04:51:00,49.0,38.5,29.90,ENE,66,1.0,6.0,67,0.00,,,0.00,Wunderground v.1.15,2017-03-30 08:51:00,
2017-03-30 04:56:00,49.0,38.5,29.90,ENE,78,1.0,6.0,67,0.00,,,0.00,Wunderground v.1.15,2017-03-30 08:56:00,
2017-03-30 05:01:00,48.9,38.8,29.89,East,101,1.0,2.0,68,0.00,,,0.00,Wunderground v.1.15,2017-03-30 09:01:00,
2017-03-30 05:06:00,48.9,38.8,29.89,SE,131,1.0,5.0,68,0.00,,,0.00,Wunderground v.1.15,2017-03-30 09:06:00,
2017-03-30 05:11:00,48.9,38.8,29.89,NNE,26,1.0,4.0,68,0.00,,,0.00,Wunderground v.1.15,2017-03-30 09:11:00,
2017-03-30 05:16:00,48.8,38.7,29.88,East,80,1.0,5.0,68,0.00,,,0.00,Wunderground v.1.15,2017-03-30 09:16:00,
2017-03-30 05:21:00,48.7,38.6,29.88,East,81,1.0,2.0,68,0.00,,,0.00,Wunderground v.1.15,2017-03-30 09:21:00,
2017-03-30 05:26:00,48.6,38.5,29.88,East,82,1.0,2.0,68,0.00,,,0.00,Wunderground v.1.15,2017-03-30 09:26:00,
2017-03-30 05:31:00,48.5,38.4,29.88,ESE,103,0.0,1.0,68,0.00,,,0.00,Wunderground v.1.15,2017-03-30 09:31:00,
2017-03-30 05:36:00,48.5,38.4,29.88,East,92,2.0,5.0,68,0.00,,,0.00,Wunderground v.1.15,2017-03-30 09:36:00,
2017-03-30 05:41:00,48.5,38.0,29.88,ENE,65,1.0,6.0,67,0.00,,,0.00,Wunderground v.1.15,2017-03-30 09:41:00,
2017-03-30 05:46:00,48.5,38.4,29.87,NE,49,1.0,7.0,68,0.00,,,0.00,Wunderground v.1.15,2017-03-30 09:46:00,
2017-03-30 05:51:00,48.7,38.2,29.87,NE,40,8.0,8.0,67,0.00,,,0.00,Wunderground v.1.15,2017-03-30 09:51:00,
2017-03-30 05:56:00,48.8,37.9,29.87,NE,50,2.0,8.0,66,0.00,,,0.00,Wunderground v.1.15,2017-03-30 09:56:00,
2017-03-30 06:01:00,48.9,38.0,29.87,ENE,63,2.0,6.0,66,0.00,,,0.00,Wunderground v.1.15,2017-03-30 10:01:00,
2017-03-30 06:06:00,49.0,38.1,29.87,ENE,75,2.0,6.0,66,0.00,,,0.00,Wunderground v.1.15,2017-03-30 10:06:00,
2017-03-30 06:11:00,49.0,37.7,29.87,East,86,4.0,5.0,65,0.00,,,0.00,Wunderground v.1.15,2017-03-30 10:11:00,
2017-03-30 06:16:00,49.0,37.7,29.87,East,94,4.0,5.0,65,0.00,,,0.00,Wunderground v.1.15,2017-03-30 10:16:00,
2017-03-30 06:21:00,49.0,37.7,29.87,ESE,109,1.0,6.0,65,0.00,,,0.00,Wunderground v.1.15,2017-03-30 10:21:00,
2017-03-30 06:26:00,49.0,37.7,29.87,SE,131,1.0,8.0,65,0.00,,,0.00,Wunderground v.1.15,2017-03-30 10:26:00,
2017-03-30 06:31:00,49.0,37.7,29.85,SE,138,6.0,9.0,65,0.00,,,0.00,Wunderground v.1.15,2017-03-30 10:31:00,
2017-03-30 06:36:00,49.0,37.7,29.85,South,189,2.0,9.0,65,0.00,,,0.00,Wunderground v.1.15,2017-03-30 10:36:00,
2017-03-30 06:41:00,49.0,37.7,29.85,SE,128,2.0,3.0,65,0.00,,,0.00,Wunderground v.1.15,2017-03-30 10:41:00,
2017-03-30 06:46:00,48.9,37.6,29.85,East,94,2.0,5.0,65,0.00,,,0.00,Wunderground v.1.15,2017-03-30 10:46:00,
2017-03-30 06:51:00,48.7,37.5,29.85,ENE,77,4.0,4.0,65,0.00,,,0.00,Wunderground v.1.15,2017-03-30 10:51:00,
2017-03-30 06:56:00,48.7,37.5,29.85,East,84,2.0,6.0,65,0.00,,,0.00,Wunderground v.1.15,2017-03-30 10:56:00,
2017-03-30 07:01:00,48.6,37.7,29.84,ESE,117,2.0,4.0,66,0.00,,,0.00,Wunderground v.1.15,2017-03-30 11:01:00,
2017-03-30 07:06:00,48.5,37.7,29.84,ESE,108,0.0,6.0,66,0.00,,,0.00,Wunderground v.1.15,2017-03-30 11:06:00,
2017-03-30 07:11:00,48.4,37.6,29.84,East,90,1.0,4.0,66,0.00,,,0.00,Wunderground v.1.15,2017-03-30 11:11:00,
2017-03-30 07:16:00,48.4,37.2,29.85,East,100,2.0,4.0,65,0.00,,,0.00,Wunderground v.1.15,2017-03-30 11:16:00,
2017-03-30 07:21:00,48.4,37.2,29.85,SE,144,1.0,2.0,65,0.00,,,0.00,Wunderground v.1.15,2017-03-30 11:21:00,
2017-03-30 07:26:00,48.4,37.2,29.85,ESE,103,1.0,6.0,65,0.00,,,0.00,Wunderground v.1.15,2017-03-30 11:26:00,
2017-03-30 07:31:00,48.4,37.2,29.85,East,100,0.0,4.0,65,0.00,,,0.00,Wunderground v.1.15,2017-03-30 11:31:00,
2017-03-30 07:36:00,48.4,37.2,29.85,SE,132,5.0,5.0,65,0.00,,,0.00,Wunderground v.1.15,2017-03-30 11:36:00,
2017-03-30 07:41:00,48.4,37.2,29.85,SE,142,3.0,3.0,65,0.00,,,0.00,Wunderground v.1.15,2017-03-30 11:41:00,
2017-03-30 07:46:00,48.4,37.2,29.85,East,92,2.0,7.0,65,0.00,,,0.00,Wunderground v.1.15,2017-03-30 11:46:00,
2017-03-30 07:51:00,48.4,37.2,29.85,East,88,1.0,5.0,65,0.00,,,0.00,Wunderground v.1.15,2017-03-30 11:51:00,
2017-03-30 07:57:00,48.5,37.7,29.85,SSW,194,4.0,5.0,66,0.00,,,0.00,Wunderground v.1.15,2017-03-30 11:57:00,
2017-03-30 08:02:00,48.4,37.2,29.84,ESE,111,1.0,2.0,65,0.00,,,0.00,Wunderground v.1.15,2017-03-30 12:02:00,
2017-03-30 08:07:00,48.5,37.7,29.84,SSW,200,1.0,5.0,66,0.00,,,0.00,Wunderground v.1.15,2017-03-30 12:07:00,
2017-03-30 08:12:00,48.6,37.4,29.84,SE,125,1.0,5.0,65,0.00,,,0.00,Wunderground v.1.15,2017-03-30 12:12:00,
2017-03-30 08:17:00,48.7,37.8,29.85,ENE,78,2.0,7.0,66,0.00,,,0.00,Wunderground v.1.15,2017-03-30 12:17:00,
2017-03-30 08:20:00,48.7,37.8,29.85,ENE,75,3.0,7.0,66,0.00,,,0.00,Wunderground v.1.15,2017-03-30 12:20:00,
2017-03-30 08:23:00,48.7,37.5,29.85,ESE,115,4.0,6.0,65,0.00,,,0.00,Wunderground v.1.15,2017-03-30 12:23:00,
2017-03-30 08:28:00,48.9,37.6,29.85,East,96,1.0,9.0,65,0.00,,,0.00,Wunderground v.1.15,2017-03-30 12:28:00,
2017-03-30 08:33:00,49.0,38.1,29.84,SE,138,4.0,5.0,66,0.00,,,0.00,Wunderground v.1.15,2017-03-30 12:33:00,
2017-03-30 08:38:00,49.1,38.2,29.84,ENE,78,1.0,5.0,66,0.00,,,0.00,Wunderground v.1.15,2017-03-30 12:38:00,
2017-03-30 08:43:00,49.2,38.3,29.84,SSE,148,1.0,4.0,66,0.00,,,0.00,Wunderground v.1.15,2017-03-30 12:43:00,
2017-03-30 08:49:00,49.3,38.4,29.84,NE,55,2.0,4.0,66,0.00,,,0.00,Wunderground v.1.15,2017-03-30 12:49:00,
2017-03-30 08:54:00,49.6,38.7,29.84,East,84,2.0,5.0,66,0.00,,,0.00,Wunderground v.1.15,2017-03-30 12:54:00,
2017-03-30 08:59:00,49.8,38.9,29.84,East,79,3.0,5.0,66,0.00,,,0.00,Wunderground v.1.15,2017-03-30 12:59:00,
2017-03-30 09:04:00,50.0,39.5,29.82,ENE,75,0.0,4.0,67,0.00,,,0.00,Wunderground v.1.15,2017-03-30 13:04:00,
2017-03-30 09:09:00,50.1,39.6,29.82,East,84,1.0,4.0,67,0.00,,,0.00,Wunderground v.1.15,2017-03-30 13:09:00,
2017-03-30 09:14:00,50.3,39.4,29.82,SE,126,2.0,6.0,66,0.00,,,0.00,Wunderground v.1.15,2017-03-30 13:14:00,
2017-03-30 09:19:00,50.4,39.5,29.82,ESE,105,0.0,9.0,66,0.00,,,0.00,Wunderground v.1.15,2017-03-30 13:19:00,
2017-03-30 09:24:00,50.9,39.9,29.82,South,181,0.0,5.0,66,0.00,,,0.00,Wunderground v.1.15,2017-03-30 13:24:00,
2017-03-30 09:29:00,51.6,40.2,29.82,SSE,149,2.0,8.0,65,0.00,,,0.00,Wunderground v.1.15,2017-03-30 13:29:00,
2017-03-30 09:34:00,51.9,40.5,29.82,ESE,103,1.0,2.0,65,0.00,,,0.00,Wunderground v.1.15,2017-03-30 13:34:00,
2017-03-30 09:39:00,52.3,40.5,29.82,East,94,2.0,6.0,64,0.00,,,0.00,Wunderground v.1.15,2017-03-30 13:39:00,
2017-03-30 09:44:00,52.6,40.8,29.82,SSE,155,2.0,6.0,64,0.00,,,0.00,Wunderground v.1.15,2017-03-30 13:44:00,
2017-03-30 09:49:00,53.0,41.1,29.81,SE,124,2.0,8.0,64,0.00,,,0.00,Wunderground v.1.15,2017-03-30 13:49:00,
2017-03-30 09:54:00,53.4,41.5,29.81,ESE,116,7.0,9.0,64,0.00,,,0.00,Wunderground v.1.15,2017-03-30 13:54:00,
2017-03-30 09:59:00,53.5,41.6,29.81,South,178,5.0,10.0,64,0.00,,,0.00,Wunderground v.1.15,2017-03-30 13:59:00,
2017-03-30 10:04:00,53.7,41.8,29.81,ESE,122,2.0,7.0,64,0.00,,,0.00,Wunderground v.1.15,2017-03-30 14:04:00,
2017-03-30 10:09:00,54.3,42.8,29.81,East,79,2.0,7.0,65,0.00,,,0.00,Wunderground v.1.15,2017-03-30 14:09:00,
2017-03-30 10:14:00,54.6,43.1,29.81,SE,134,2.0,6.0,65,0.00,,,0.00,Wunderground v.1.15,2017-03-30 14:14:00,
2017-03-30 10:19:00,54.9,42.9,29.80,SE,136,2.0,8.0,64,0.00,,,0.00,Wunderground v.1.15,2017-03-30 14:19:00,
2017-03-30 10:24:00,55.2,43.6,29.80,SE,127,4.0,9.0,65,0.00,,,0.00,Wunderground v.1.15,2017-03-30 14:24:00,
2017-03-30 10:29:00,55.4,43.8,29.80,ENE,64,6.0,10.0,65,0.00,,,0.00,Wunderground v.1.15,2017-03-30 14:29:00,
2017-03-30 10:34:00,55.5,43.9,29.80,SE,134,3.0,7.0,65,0.00,,,0.00,Wunderground v.1.15,2017-03-30 14:34:00,
2017-03-30 10:39:00,55.6,44.4,29.80,ESE,103,4.0,8.0,66,0.00,,,0.00,Wunderground v.1.15,2017-03-30 14:39:00,
2017-03-30 10:44:00,55.9,44.7,29.80,SE,142,4.0,6.0,66,0.00,,,0.00,Wunderground v.1.15,2017-03-30 14:44:00,
2017-03-30 10:49:00,56.3,45.5,29.79,SW,215,0.0,7.0,67,0.00,,,0.00,Wunderground v.1.15,2017-03-30 14:49:00,
2017-03-30 10:54:00,56.9,46.1,29.79,South,190,1.0,7.0,67,0.00,,,0.00,Wunderground v.1.15,2017-03-30 14:54:00,
2017-03-30 10:59:00,57.3,46.4,29.79,SSE,161,1.0,7.0,67,0.00,,,0.00,Wunderground v.1.15,2017-03-30 14:59:00,
2017-03-30 11:04:00,57.5,46.6,29.80,East,86,1.0,5.0,67,0.00,,,0.00,Wunderground v.1.15,2017-03-30 15:04:00,
2017-03-30 11:09:00,57.6,46.7,29.80,ESE,116,2.0,5.0,67,0.00,,,0.00,Wunderground v.1.15,2017-03-30 15:09:00,
2017-03-30 11:14:00,57.9,47.0,29.80,SE,142,2.0,5.0,67,0.00,,,0.00,Wunderground v.1.15,2017-03-30 15:14:00,
2017-03-30 11:19:00,58.0,47.1,29.79,SSE,166,2.0,7.0,67,0.00,,,0.00,Wunderground v.1.15,2017-03-30 15:19:00,
2017-03-30 11:24:00,58.4,47.9,29.79,ENE,59,3.0,4.0,68,0.00,,,0.00,Wunderground v.1.15,2017-03-30 15:24:00,